Wetbulb
61.65 63.34 62.33 58.86 57.54 61.56 56.84 56.63 55.26 53.62 57.21 62.06 64.57 64.03 65.01 65.33 66.31 67.02 68.49 69.89 70.84 72.10 72.91 73.58 73.82 74.03 74.34 74.82 74.95 73.63 73.03 75.12
60.08 62.43 63.14 60.57 61.66 56.26 57.40 51.61 49.37 53.10 54.50 50.67 61.20 62.82 64.27 64.33 65.20 67.31 68.96 69.96 70.83 72.13 72.63 73.60 74.10 74.48 74.72 75.39 74.97 73.27 70.75 70.93
57.83 58.00 57.66 59.21 57.86 58.27 59.05 56.92 52.84 52.44 52.71 58.84 62.65 63.87 64.23 64.54 65.78 67.15 68.60 70.09 70.88 72.36 72.96 73.33 73.96 74.19 74.44 74.59 74.12 73.34 71.19 70.37
51.81 57.72 61.00 59.29 58.44 57.62 52.98 54.40 52.67 55.58 56.95 61.92 63.39 65.25 65.81 65.54 66.73 67.83 69.51 70.56 71.47 72.36 72.95 73.07 73.28 73.64 73.80 74.18 73.45 73.71 73.65 73.34
49.74 54.59 58.74 56.78 57.11 57.52 58.40 55.55 48.24 46.55 55.82 64.69 64.38 65.53 66.27 65.93 67.03 68.05 68.85 70.06 71.26 71.91 72.13 72.72 73.14 73.64 73.55 74.33 73.84 73.67 73.72 73.19
47.74 51.59 56.42 56.21 56.40 57.04 57.66 55.37 55.49 55.19 57.51 59.14 63.28 63.69 65.31 65.95 67.66 68.49 69.73 70.46 70.83 70.95 71.74 72.91 73.87 74.27 75.39 74.21 73.90 74.90 74.51 73.74
52.58 53.03 53.89 54.25 55.67 56.54 57.09 58.50 55.99 56.75 57.38 59.77 63.16 64.30 65.29 66.66 68.06 68.05 69.19 69.92 70.42 70.69 71.86 73.61 74.97 75.50 76.24 74.62 74.48 75.16 75.80 74.79
51.45 52.57 52.73 51.31 53.69 56.87 56.88 58.96 59.14 58.71 58.03 61.71 63.01 65.99 65.77 66.51 67.34 67.92 68.13 69.27 70.17 70.92 72.27 74.17 74.71 77.06 77.09 76.71 76.46 76.59 77.27 75.12
49.56 52.73 52.06 49.26 51.97 53.22 55.64 59.57 58.74 56.42 59.84 61.36 62.50 63.89 65.83 66.32 67.61 67.69 67.40 68.87 69.62 70.63 72.14 74.19 75.02 76.91 75.91 77.28 77.24 78.00 79.09 78.80
50.55 52.65 46.23 52.94 56.39 55.23 53.79 55.55 57.78 59.04 61.36 61.68 61.78 64.63 66.83 67.24 67.91 68.25 68.31 68.37 70.88 70.73 72.92 74.52 75.57 76.30 77.07 77.22 78.73 78.93 78.07 79.20
49.64 49.66 52.43 53.88 55.86 54.79 53.88 53.61 57.10 59.10 61.70 61.91 62.57 63.79 66.20 68.55 68.80 69.46 69.68 69.33 69.98 71.05 72.94 76.65 77.29 78.90 79.19 79.04 79.85 79.82 78.68 78.46
52.19 48.76 47.13 54.12 57.08 59.23 58.53 52.30 58.02 58.49 59.35 60.19 61.38 58.92 62.84 68.52 69.21 69.04 70.22 70.26 70.40 71.15 72.69 74.57 75.65 77.11 79.70 79.74 79.84 79.25 79.66 77.84
50.27 49.61 52.61 57.35 58.29 59.70 52.52 55.01 62.80 62.48 61.65 63.88 61.80 62.20 66.68 68.17 69.76 70.05 69.95 70.87 71.10 71.93 72.47 75.39 78.11 78.41 79.24 79.81 79.31 80.66 80.27 76.93
51.02 49.43 47.95 58.90 58.31 55.18 61.48 64.17 64.81 65.59 66.53 67.18 67.64 67.38 68.36 69.56 69.20 70.03 69.29 70.83 71.25 72.91 75.09 77.94 79.28 79.32 79.55 79.43 81.16 81.74 79.59 77.20
52.58 52.67 58.97 60.25 60.00 64.49 64.99 65.81 64.92 65.08 64.86 65.50 66.55 66.65 67.90 69.16 70.05 70.36 69.59 70.63 71.39 72.38 76.22 78.71 79.56 80.07 79.56 80.66 81.71 80.51 76.99 75.14
54.34 56.14 57.33 59.19 63.36 63.96 64.43 64.31 65.37 64.27 63.58 64.18 64.21 65.02 66.14 67.22 69.33 71.29 71.01 70.83 71.79 72.77 75.86 77.88 79.45 80.56 80.68 81.34 81.03 78.52 75.62 73.32
53.64 57.17 58.92 59.89 62.24 61.84 61.15 61.40 62.60 62.45 63.04 63.11 63.69 64.01 64.46 66.05 66.87 69.91 71.47 71.93 72.86 73.53 76.84 78.31 79.58 79.98 79.87 80.86 80.29 76.22 75.72 74.07
51.51 56.75 58.24 60.11 61.76 62.57 59.82 59.38 59.41 59.85 59.52 60.61 61.97 63.35 63.87 65.15 67.59 69.30 70.67 73.69 74.20 75.65 76.97 78.91 78.67 78.50 80.10 79.81 79.27 75.81 75.50 74.77
52.93 56.35 56.87 58.35 61.03 63.17 60.67 59.83 59.74 59.24 59.46 58.85 59.84 61.71 63.51 64.85 67.44 65.36 70.03 71.93 74.70 76.91 78.30 79.30 78.85 78.37 80.75 80.09 78.52 77.74 76.67 75.90
MSLP
998.35 999.27 999.47 999.44 999.73 1000.76 1001.52 1000.64 1001.68 1003.81 1001.04 998.81 997.89 997.62 997.62 997.87 999.05 1000.20 1001.36 1002.57 1004.46 1005.81 1007.20 1008.30 1009.43 1010.49 1011.36 1012.63 1013.47 1014.62 1015.52 1015.97
997.84 998.87 998.84 999.23 1000.56 1000.08 1001.17 1000.91 1001.87 1002.89 1002.43 1002.86 998.15 997.61 997.46 997.58 998.41 999.45 1000.70 1002.41 1003.79 1005.15 1006.60 1007.88 1008.90 1009.99 1010.95 1012.11 1013.05 1014.57 1015.47 1016.02
997.21 998.20 998.62 999.33 999.69 999.77 1000.46 1000.36 1000.60 1000.77 1003.18 1000.98 998.56 997.22 997.21 997.52 998.01 998.79 1000.13 1001.86 1003.17 1004.58 1006.01 1007.31 1008.35 1009.38 1010.51 1011.65 1012.52 1013.82 1015.13 1015.58
996.69 997.02 998.31 998.20 997.77 998.52 998.78 999.42 1001.33 1001.73 1000.20 999.61 997.38 996.77 996.78 997.17 997.92 998.72 1000.13 1001.62 1002.83 1004.33 1005.61 1006.79 1007.75 1008.73 1010.01 1011.14 1011.89 1012.85 1014.10 1014.87
996.30 996.70 997.12 997.39 997.60 997.53 997.66 999.81 1003.50 1004.19 1000.49 998.31 996.98 996.47 996.68 996.99 998.12 999.36 1000.51 1001.67 1002.78 1004.07 1005.31 1006.33 1007.25 1008.22 1009.37 1010.43 1011.86 1012.47 1013.63 1014.42
995.81 995.42 995.68 996.52 997.21 997.14 997.22 997.93 999.36 1000.47 998.59 997.80 996.49 996.28 996.54 997.15 998.43 999.66 1000.69 1001.73 1002.56 1003.65 1004.86 1006.04 1007.01 1007.97 1008.88 1009.86 1011.15 1011.80 1013.00 1013.60
996.24 995.64 995.19 995.27 995.87 996.40 996.66 996.98 997.59 997.84 997.25 996.06 995.76 995.95 996.68 997.40 998.69 999.72 1000.64 1001.52 1002.38 1003.27 1004.56 1005.90 1006.95 1007.87 1008.72 1009.56 1010.88 1011.29 1012.06 1012.97
996.57 996.04 995.63 995.38 995.07 995.17 995.79 995.98 996.26 995.99 995.60 995.34 995.38 995.91 996.60 997.42 998.55 999.59 1000.39 1001.33 1002.04 1003.03 1004.37 1005.66 1006.67 1007.68 1008.56 1009.34 1010.05 1010.89 1011.87 1012.94
996.41 996.24 995.92 995.28 995.04 994.89 994.85 994.94 995.66 995.04 994.91 995.54 995.58 996.13 996.16 996.97 998.13 999.23 1000.10 1001.04 1001.70 1002.72 1004.00 1005.23 1006.38 1007.53 1008.39 1009.24 1010.27 1010.99 1011.62 1012.22
996.66 996.30 995.24 994.56 994.38 994.67 994.78 994.63 994.56 994.43 994.47 994.81 995.37 995.74 996.11 996.26 997.29 998.59 999.68 1000.53 1001.35 1002.35 1003.69 1004.93 1006.05 1007.36 1008.13 1009.08 1010.35 1011.19 1011.76 1012.32
997.06 996.48 995.39 994.57 994.41 993.94 993.85 994.13 994.40 993.96 994.34 994.76 995.16 995.74 995.87 996.05 996.33 997.66 998.90 999.89 1000.71 1001.78 1002.98 1004.47 1005.56 1006.83 1007.80 1008.76 1009.89 1010.82 1011.59 1012.35
997.50 996.47 995.16 994.64 994.37 994.21 994.26 994.17 994.22 994.17 994.47 994.76 994.93 995.31 995.20 995.60 996.04 996.59 997.91 999.12 1000.08 1000.97 1002.20 1003.94 1005.22 1006.46 1007.49 1008.42 1009.51 1010.35 1011.11 1012.20
997.94 997.05 995.86 995.34 994.74 995.03 995.39 995.59 995.47 995.48 995.45 995.72 995.11 995.27 995.79 996.03 995.76 995.95 997.09 998.32 999.41 1000.42 1001.51 1002.95 1004.61 1005.88 1007.08 1008.17 1009.07 1009.87 1010.84 1012.31
997.88 997.11 996.23 996.06 995.81 996.04 996.54 997.24 997.57 997.37 997.68 997.62 996.95 996.63 997.26 996.84 995.95 996.29 996.68 997.59 998.81 999.93 1001.25 1002.66 1004.18 1005.48 1006.67 1007.68 1008.70 1009.53 1010.72 1012.04
997.19 996.56 997.01 996.70 996.47 997.48 997.59 998.39 998.96 999.06 999.18 999.12 998.73 999.04 999.03 998.62 997.75 996.76 996.58 997.20 998.24 999.55 1001.00 1002.42 1003.83 1005.08 1006.02 1007.12 1008.35 1009.44 1010.70 1011.83
998.10 997.22 997.00 996.95 998.31 999.00 999.45 999.81 1000.05 1000.56 1000.55 1000.34 1000.30 1000.28 1000.29 1000.26 999.49 998.41 997.21 997.26 998.16 999.26 1000.64 1002.35 1003.63 1004.85 1005.52 1006.40 1007.63 1009.28 1010.58 1011.60
998.81 998.50 998.46 998.14 999.44 1000.15 1000.71 1000.83 1001.14 1001.47 1001.51 1001.34 1001.28 1001.20 1001.47 1001.19 1001.01 999.91 999.52 997.80 998.34 999.43 1000.36 1001.81 1003.18 1004.23 1004.97 1005.88 1006.87 1008.50 1010.01 1011.23
999.62 999.47 999.13 998.99 999.65 1000.93 1001.49 1001.67 1001.86 1002.04 1002.08 1002.12 1002.06 1001.85 1001.79 1001.72 1001.65 1001.37 1000.32 999.22 998.82 999.50 1000.08 1001.36 1002.91 1004.07 1004.40 1005.21 1006.29 1007.36 1008.61 1009.96
1001.16 1000.86 1000.20 1000.00 1000.29 1001.21 1001.71 1002.05 1002.17 1002.17 1002.31 1002.32 1002.21 1002.09 1002.24 1002.18 1001.89 1001.90 1001.20 1000.24 999.33 999.67 1000.05 1000.98 1002.07 1003.09 1003.68 1004.47 1005.61 1006.32 1006.93 1008.19
Wind_Speed
15 18 19 12 11 12 22 19 4 4 21 11 13 8 12 17 19 20 20 20 20 19 17 17 17 17 15 16 13 11 10 8
13 9 11 18 2 6 9 9 4 10 10 5 7 13 13 15 21 22 21 20 19 19 19 17 18 17 16 16 14 14 11 9
16 14 16 14 17 16 16 18 9 9 7 21 17 8 17 16 14 19 20 21 18 19 18 18 17 17 16 16 16 15 11 9
19 18 18 22 18 21 13 10 9 19 6 12 3 11 15 17 14 14 14 17 18 18 19 18 18 18 17 16 15 16 15 14
19 18 17 13 20 21 18 8 7 9 10 17 6 10 12 14 14 14 15 17 18 19 18 18 17 17 18 18 17 15 10 12
16 17 16 18 20 22 19 10 9 25 7 26 11 8 12 16 15 15 14 17 17 18 19 17 16 16 15 17 17 16 18 16
19 21 16 13 16 18 22 13 17 2 7 5 8 14 10 14 15 15 16 18 18 18 18 17 15 15 14 15 17 16 13 12
20 21 19 16 17 16 21 16 15 16 11 7 4 3 15 14 16 16 17 17 18 18 19 18 18 14 14 13 15 14 15 16
15 14 15 19 20 17 17 17 14 17 12 6 1 5 12 17 16 16 16 18 19 19 19 17 18 16 17 13 12 11 12 10
11 16 22 12 14 19 19 19 18 18 11 7 4 5 11 15 19 17 17 19 18 17 17 18 19 18 17 17 15 13 10 12
13 14 15 9 16 15 15 15 21 17 15 11 8 8 4 13 17 21 19 19 18 19 20 16 17 17 15 16 15 14 14 13
9 16 19 12 16 10 6 14 15 18 18 14 13 8 9 15 16 22 22 20 19 20 20 20 19 19 16 16 16 16 15 15
15 14 13 10 13 4 12 2 7 5 5 7 15 9 6 5 13 18 20 21 20 20 19 20 18 18 17 16 17 15 14 15
15 19 22 15 10 11 6 6 5 6 8 9 12 11 8 12 2 15 17 20 20 17 15 18 19 18 18 17 15 15 15 15
17 13 18 9 15 9 8 8 7 7 8 7 8 8 8 9 12 7 18 17 19 19 17 19 20 18 19 17 16 16 17 15
11 13 1 5 8 7 7 6 5 7 8 7 7 8 8 8 12 14 10 14 16 18 19 18 19 18 17 19 19 17 17 15
10 19 9 9 6 5 3 3 4 4 5 7 7 7 8 8 8 12 14 12 15 17 17 19 19 19 19 19 20 20 18 17
9 14 11 7 9 11 3 1 3 3 4 5 7 7 7 9 8 10 12 13 13 15 16 18 19 18 17 20 20 21 20 17
14 18 20 12 4 7 7 8 9 8 6 8 8 7 6 6 7 8 10 14 12 14 14 17 18 19 18 20 21 20 19 18
Wind_Direction
201 217 250 220 224 229 246 276 0 4 266 48 132 181 173 154 164 175 175 162 181 165 169 171 171 178 173 170 176 173 164 180
164 248 221 268 310 272 348 305 29 266 2 340 307 164 176 174 178 173 170 156 177 166 170 172 173 174 176 170 172 163 168 181
190 190 233 204 245 250 214 249 266 277 80 235 257 214 174 184 185 169 171 163 187 165 167 170 173 171 175 170 172 158 164 175
247 191 211 263 249 223 237 253 4 316 116 275 23 184 169 182 176 151 156 168 171 165 168 171 176 172 177 171 176 172 171 178
223 210 209 249 240 261 261 107 93 290 296 292 113 142 164 163 152 147 161 168 167 170 171 174 177 175 175 179 168 184 156 180
248 231 200 198 235 237 256 232 227 217 191 223 108 144 163 146 146 155 173 166 173 173 171 174 177 175 175 188 156 184 178 188
249 266 267 231 201 231 224 239 245 139 290 317 111 145 174 150 160 167 181 173 176 180 168 171 171 172 173 185 163 185 182 177
252 246 256 251 262 210 228 243 259 280 290 358 82 105 164 173 166 172 181 179 178 181 167 175 173 172 172 187 168 180 168 180
236 240 252 241 246 245 252 224 221 254 250 121 127 206 185 179 172 176 183 183 177 180 174 178 175 176 172 174 171 172 183 172
238 234 237 237 235 223 249 252 239 245 247 205 170 197 204 191 174 180 183 182 177 183 174 177 175 180 177 166 172 174 179 167
248 242 260 223 238 246 219 226 239 245 221 233 203 218 219 218 191 176 187 187 183 185 176 174 176 172 176 168 172 170 177 157
234 252 240 229 238 227 275 242 243 235 238 236 216 210 236 182 223 180 185 192 188 184 174 175 181 173 177 169 174 180 178 161
231 247 248 262 291 132 226 285 42 307 286 315 273 195 107 289 193 199 180 190 188 183 179 175 174 170 174 173 183 181 167 159
229 238 236 254 311 213 53 71 26 39 29 11 8 49 15 335 241 197 192 191 190 176 176 164 168 171 172 179 178 171 152 168
232 228 223 271 263 52 14 79 46 32 34 15 30 19 6 333 317 239 198 197 186 173 172 165 168 176 174 172 165 162 160 160
282 269 260 186 80 71 65 72 74 44 20 21 31 19 351 349 329 326 216 196 188 178 167 169 174 180 181 163 159 159 166 161
236 267 338 173 149 134 103 63 73 49 21 18 6 13 354 342 327 331 313 222 189 188 172 178 178 183 180 165 161 163 169 168
242 239 243 253 202 149 213 282 333 318 344 359 347 347 354 334 342 312 308 306 193 199 185 176 181 189 184 173 170 169 171 175
264 279 287 313 307 163 243 264 275 281 292 306 313 317 326 326 338 320 281 297 232 204 198 179 181 188 187 177 176 178 175 173